Location: Unspecified
(17.6330°N, 0.0000°E)
Time: 10:36:21
(UTC+00:00)

N. Korean satellite - Pass Details

Date: 01 November 2020
Orbit: 452 x 504 km, 97.2° (Epoch: 28 November)

Event Time Altitude Azimuth Distance (km) Brightness Sun altitude
Rises 04:53:25 0° 23° (NNE) 2,460 10.3 -16.1°
Reaches altitude 10° 04:55:34 10° 33° (NNE) 1,591 9.5 -15.6°
Maximum altitude 04:58:41 34° 100° (E) 778 8.3 -14.8°
Drops below altitude 10° 05:01:50 10° 166° (SSE) 1,606 9.5 -14.1°
Sets 05:04:01 0° 176° (S) 2,488 10.4 -13.6°
